Camp Point, IL

9:57 PM CST on February 19, 2017 (GMT -0600)
Quincy Regional-Baldwin

Weather History for KUIN - August, 2013

Change the Weather History Date:

Saturday, August 10, 2013

  Actual Average Record
Temperature  
Mean Temperature 73 °F 75 °F  
Max Temperature 83 °F 85 °F 108 °F (1934)
Min Temperature 62 °F 65 °F 53 °F (1967)
Degree Days  
Heating Degree Days 0 0  
Month to date heating degree days 0 0  
Since 1 June heating degree days 16 16  
Since 1 July heating degree days 4 0  
Cooling Degree Days 8 10  
Month to date cooling degree days 86 105  
Year to date cooling degree days 767 761  
Since 1 June cooling degree days 655 675  
Growing Degree Days 22 (Base 50)    
Moisture  
Dew Point 58 °F    
Average Humidity 64    
Maximum Humidity 90    
Minimum Humidity 37    
Precipitation  
Precipitation 0.00 in 0.12 in 1.25 in (1966)
Month to date precipitation 0.01 1.20  
Year to date precipitation 28.10 23.32  
Sea Level Pressure  
Sea Level Pressure 30.13 in    
Wind  
Wind Speed 6 mph (NNE)    
Max Wind Speed 16 mph    
Max Gust Speed 22 mph    
Visibility 10 miles    
Events      
T = Trace of Precipitation, MM = Missing Value Source: NWS Daily Summary

Daily Weather History Graph

Daily Weather History Graph

Search for Another Location

Airport or City:

Trip Planner

Search our weather history database for the weather conditions in past years. The results will help you decide how hot, cold, wet, or windy it might be!

Date:

Astronomy

Aug. 10, 2013 Rise Set
Actual Time 6:11 AM CDT 8:07 PM CDT
Civil Twilight 5:42 AM CDT 8:36 PM CDT
Nautical Twilight 5:06 AM CDT 9:12 PM CDT
Astronomical Twilight 4:28 AM CDT 9:50 PM CDT
Moon 9:58 AM CDT (8/10) 9:49 PM CDT (8/10)
Length of Visible Light 14h 54m
Length of Day
13h 55m
Waxing Crescent, 14% of the Moon is Illuminated
Aug 10
Waxing Crescent
Aug 14
First Quarter
Aug 20
Full
Aug 28
Last Quarter
Sep 5
New

Hourly Weather History & Observations

Time (CDT) Temp. Heat Index Dew Point Humidity Pressure Visibility Wind Dir Wind Speed Gust Speed Precip Events Conditions
12:54 AM 69.1 °F - 64.9 °F 87% 30.09 in 10.0 mi North 5.8 mph - N/A   Mostly Cloudy
1:54 AM 68.0 °F - 64.0 °F 87% 30.09 in 10.0 mi NNE 4.6 mph - N/A   Clear
2:54 AM 68.0 °F - 64.0 °F 87% 30.10 in 10.0 mi North 5.8 mph - N/A   Mostly Cloudy
3:54 AM 68.0 °F - 63.0 °F 84% 30.11 in 10.0 mi North 5.8 mph - N/A   Overcast
4:54 AM 64.9 °F - 61.0 °F 87% 30.10 in 10.0 mi NNE 5.8 mph - N/A   Clear
5:54 AM 63.0 °F - 59.0 °F 87% 30.12 in 10.0 mi North 4.6 mph - N/A   Clear
6:54 AM 63.0 °F - 57.9 °F 84% 30.13 in 10.0 mi NNE 4.6 mph - N/A   Clear
7:54 AM 66.9 °F - 59.0 °F 76% 30.14 in 10.0 mi North 5.8 mph - N/A   Clear
8:54 AM 72.0 °F - 60.1 °F 66% 30.15 in 10.0 mi North 4.6 mph - N/A   Clear
9:54 AM 75.9 °F - 55.9 °F 50% 30.15 in 10.0 mi North 5.8 mph - N/A   Clear
10:54 AM 79.0 °F - 54.0 °F 42% 30.16 in 10.0 mi NNE 9.2 mph - N/A   Clear
11:54 AM 79.0 °F - 54.0 °F 42% 30.17 in 10.0 mi NNE 6.9 mph - N/A   Clear
12:54 PM 81.0 °F 80.5 °F 54.0 °F 39% 30.16 in 10.0 mi NNE 8.1 mph - N/A   Clear
1:54 PM 82.9 °F 81.8 °F 53.1 °F 36% 30.14 in 10.0 mi North 15.0 mph 21.9 mph N/A   Clear
2:54 PM 82.9 °F 81.9 °F 54.0 °F 37% 30.13 in 10.0 mi North 12.7 mph - N/A   Clear
3:54 PM 82.0 °F 81.2 °F 53.1 °F 37% 30.12 in 10.0 mi North 12.7 mph - N/A   Clear
4:54 PM 81.0 °F 80.5 °F 54.0 °F 39% 30.11 in 10.0 mi NNE 11.5 mph - N/A   Clear
5:54 PM 80.1 °F 80.1 °F 55.0 °F 42% 30.11 in 10.0 mi North 8.1 mph - N/A   Clear
6:54 PM 78.1 °F - 55.9 °F 46% 30.10 in 10.0 mi NE 6.9 mph - N/A   Clear
7:54 PM 73.0 °F - 59.0 °F 61% 30.10 in 10.0 mi Calm Calm - N/A   Clear
8:54 PM 73.0 °F - 57.9 °F 59% 30.12 in 10.0 mi Calm Calm - N/A   Clear
9:54 PM 70.0 °F - 57.9 °F 65% 30.14 in 10.0 mi Calm Calm - N/A   Clear
10:54 PM 71.1 °F - 55.9 °F 59% 30.13 in 10.0 mi East 4.6 mph - N/A   Clear
11:54 PM 66.9 °F - 55.9 °F 68% 30.14 in 10.0 mi Calm Calm - N/A   Clear